Location: Paddlesworth
(51.1000°N, 1.1333°E)
Time: 19:23:36
(UTC+00:00)

Daily predictions for brighter satellites

Satellite Brightness Start Highest point End
(mag) Time Altitude Azimuth Time Altitude Azimuth Time Altitude Azimuth
H-2A R/B 2.9 18:16:17 10° N 18:20:18 53° WNW 18:24:19 10° SW
SL-08 RB Rocket 4.2 18:16:10 10° SE 18:20:23 39° ENE 18:24:40 10° N
FALCON 9 DEB 2.9 18:19:05 10° WNW 18:22:17 89° NNE 18:25:29 10° ESE
HJ-1C 3.6 18:21:40 10° SE 18:24:50 45° ENE 18:28:00 10° N
COSMOS 2428 3.5 18:20:23 10° SSE 18:25:09 28° ESE 18:29:56 10° NE
SL-16 R/B 3.0 18:22:30 10° SW 18:28:05 56° NW 18:33:41 10° NNE
Cosmos 1470 Rocket 3.7 18:26:33 10° SSW 18:31:01 82° WNW 18:35:28 10° N
SKYMED 2 3.9 18:26:53 10° N 18:31:14 72° WNW 18:35:33 10° SSW
USA 307 3.1 18:27:27 10° WNW 18:31:45 65° NNE 18:35:52 11° E
Cosmos 2369 Rocket 4.3 18:29:40 10° N 18:31:46 12° NNE 18:33:52 10° NE
USA 306 3.1 18:28:43 10° WNW 18:33:02 66° NNE 18:37:06 11° E
SL-8 Rocket 4.2 18:28:45 10° SSE 18:34:37 46° E 18:40:29 10° NNE
CENTAUR R/B 3.8 18:31:19 10° SE 18:34:50 16° ESE 18:38:40 10° ENE
ATLAS CENTAUR R/B 1.4 18:32:08 10° SW 18:35:45 67° NW 18:39:29 10° NE
Meteor 2-12 Rocket 4.5 18:31:35 10° S 18:37:40 90° E 18:43:50 10° N
Cosmos 962 Rocket 4.5 18:32:08 10° S 18:38:19 69° E 18:44:38 10° NNE
Cosmos 1743 4.4 18:39:07 10° ESE 18:41:19 15° E 18:43:29 10° NE
Cosmos 1703 Rocket 3.6 18:37:52 10° N 18:42:17 90° ENE 18:46:39 10° S
USA 308 3.0 18:38:18 10° WNW 18:42:34 68° NNE 18:46:15 14° E
Cosmos 1666 2.7 18:39:10 10° S 18:42:48 54° E 18:46:29 10° NNE
Cosmos 1339 Rocket 4.5 18:38:04 10° N 18:44:18 70° ENE 18:50:35 10° SSE
Cosmos 2322 3.8 18:40:15 10° S 18:45:51 57° ESE 18:51:27 10° NE
Cosmos 1844 Rocket 3.9 18:40:46 10° NW 18:46:03 45° WSW 18:51:18 10° S
CSL-04 Rocket 3.7 18:40:57 10° SSE 18:46:27 73° ENE 18:51:56 10° NNW
Okean-O 3.0 18:45:11 10° S 18:49:36 68° WSW 18:54:02 10° NNW
ASTEX 1 4.2 18:46:22 10° NNE 18:50:36 29° E 18:54:49 10° SE
Cosmos 1777 Rocket 4.1 18:45:29 10° NNW 18:50:45 80° WSW 18:55:58 10° SSE
Cosmos 1933 Rocket 3.8 18:47:03 10° SSW 18:51:25 76° W 18:55:51 10° N
Cosmos 2366 rocket 4.2 18:46:46 10° SSE 18:52:50 52° E 18:58:59 10° NNE
H-2A R/B 2.8 18:48:20 10° S 18:53:43 61° W 18:59:06 10° NNW
CSL-04 Debris 4.2 18:48:36 10° SSE 18:54:04 87° ENE 18:59:36 10° NNW
SJ-6B 3.5 18:52:53 10° SE 18:56:34 34° ENE 19:00:12 10° N
Cosmos 2221 Rocket 4.1 18:53:33 10° N 18:57:42 38° ENE 19:01:51 10° SE
Ariane Rocket 3.6 18:55:36 10° SE 19:00:15 37° ENE 19:04:55 10° N
USA 186 1.8 18:59:36 22° ESE 19:00:46 35° ENE 19:03:16 10° N
Cosmos 1500 4.4 18:58:51 10° SSW 19:02:26 44° WNW 19:06:03 10° N
OBJECT-B 1.7 19:02:09 21° ESE 19:03:27 29° ENE 19:06:18 10° N
NOSS 3-2 (C) 4.4 19:00:18 10° SSE 19:04:30 22° ESE 19:08:11 13° ENE
Okean 1-7 3.8 19:02:06 10° NNW 19:06:23 56° W 19:10:36 10° S
Meteor 1-11 Rocket 3.7 19:01:08 10° S 19:06:42 61° E 19:12:10 10° NNE
PSLV R/B 4.2 19:03:02 10° N 19:07:08 72° WNW 19:11:10 10° SSW
Cosmos 2360 Rocket 2.9 19:04:38 10° SW 19:10:12 57° NW 19:15:49 10° NNE
YAOGAN 1 4.0 19:06:32 10° SSW 19:10:36 40° W 19:14:43 10° NNW
SAR-Lupe-4 3.6 19:07:56 10° NNE 19:11:33 83° WNW 19:15:08 10° SSW
FALCON 9 DEB 3.6 19:08:56 10° WNW 19:12:01 47° SSW 19:13:45 22° SE
Cosmos 1943 Rocket 3.6 19:08:31 10° NNW 19:12:52 22° NE 19:15:25 16° ENE
Meteor 1-13 Rocket 4.5 19:07:42 10° NNW 19:13:40 79° W 19:19:30 10° S
SJ 16-02 1.3 19:10:51 10° NNW 19:15:17 75° ENE 19:19:18 12° SSE
Cosmos 1727 Rocket 3.9 19:09:30 10° N 19:15:41 67° ENE 19:21:52 10° SSE
Cosmos 2341 Rocket 4.2 19:10:12 10° SSW 19:16:29 76° W 19:22:46 10° N
Cosmos 2333 4.3 19:11:06 10° SSW 19:16:47 83° WNW 19:22:34 10° NNE
DMSP B5D2-2 4.1 19:11:52 10° NNE 19:17:01 55° E 19:22:07 10° S
Cosmos 1821 Rocket 4.5 19:11:38 10° SSE 19:17:11 36° E 19:22:42 10° NNE
Cosmos 2278 Rocket 2.2 19:11:41 10° NNW 19:17:23 73° ENE 19:22:11 15° SE
Cosmos 2237 Rocket 3.0 19:12:47 10° SSE 19:17:33 28° ESE 19:22:21 10° NE
Cosmos 1544 3.6 19:15:29 10° SSE 19:18:49 34° E 19:22:11 10° NNE
Okean 3 3.6 19:15:23 10° NNW 19:19:40 78° W 19:23:56 10° S
FALCON 9 DEB 4.0 19:16:52 10° W 19:19:51 38° SSW 19:21:22 22° SSE
SL-4 R/B 3.8 19:17:41 10° W 19:20:19 20° SW 19:22:53 10° S
MOS 1 4.4 19:15:42 11° SE 19:21:06 56° ENE 19:26:38 10° N
Cosmos 1536 2.7 19:17:12 10° S 19:21:10 70° E 19:25:08 10° NNE
SeaSat 1 2.5 19:19:18 10° NE 19:24:08 52° ESE 19:28:57 10° SSW
Abrixas rocket 3.9 19:24:37 10° WSW 19:26:12 15° SSW 19:26:46 14° S
SPOT 3 Rocket 4.3 19:24:24 25° ESE 19:26:26 34° ENE 19:31:06 10° N
Cosmos 2218 Rocket 4.0 19:20:43 10° S 19:27:08 88° ESE 19:33:33 10° N
MetOp-A 4.1 19:25:36 10° SSE 19:30:58 89° WSW 19:36:22 10° NNW
Cosmos 864 Rocket 4.4 19:24:52 10° S 19:31:04 88° E 19:37:21 10° N
SME Rocket 4.1 19:24:07 10° NNE 19:31:35 55° E 19:36:31 10° S
Meteor 2-20 Rocket 4.5 19:25:43 10° N 19:31:46 60° ENE 19:37:09 13° SSE
Resurs 01 Rocket 2.4 19:31:41 30° E 19:32:20 31° ENE 19:36:15 10° N
USA 234 3.9 19:33:08 25° E 19:35:29 31° SE 19:41:10 10° S
Gbstr 26 Del rocket 3.5 19:31:00 10° WNW 19:35:37 72° SSW 19:38:19 30° ESE
Cosmos 2333 Rocket 2.4 19:32:04 10° SW 19:37:45 74° WNW 19:43:31 10° NNE
Cosmos 1937 Rocket 3.8 19:33:09 10° NNW 19:38:08 45° ENE 19:39:49 34° ESE
Cosmos 2123 Rocket 4.4 19:32:52 10° N 19:38:43 40° ENE 19:41:02 30° ESE
Lacrosse 4 Rocket 1.9 19:34:56 10° SW 19:39:20 65° NW 19:43:50 10° NNE
ERBS 3.6 19:38:39 10° WNW 19:41:37 29° N 19:42:16 27° NNE
USA 238 DEB 3.7 19:37:34 10° SSW 19:43:54 53° ESE 19:50:34 10° NE
USA 238 3.7 19:37:42 10° SSW 19:44:01 52° ESE 19:50:40 10° NE
Cosmos 2322 Rocket 4.3 19:39:49 10° W 19:44:27 26° NW 19:49:08 10° NNE
Cosmos 1842 3.8 19:41:44 10° N 19:45:12 40° ENE 19:45:12 40° ENE
CZ-4 R/B 4.5 19:43:57 10° SW 19:46:12 15° W 19:48:31 10° NW
Resurs 1-3 3.5 19:45:28 37° SE 19:47:02 64° ENE 19:51:24 10° N
ERS-2 4.0 19:44:27 10° N 19:47:45 32° WNW 19:51:02 10° SW
IRS-1A Rocket 4.2 19:46:16 14° SSE 19:51:14 89° WSW 19:56:48 10° NNW
Cosmos 2219 Rocket 2.6 19:48:26 10° SW 19:53:59 64° NW 19:59:37 10° NNE
CZ-2C R/B 3.4 19:49:40 10° N 19:54:59 54° WNW 20:00:10 10° SW
CREW DRAGON DEMO-1 DEB 4.4 19:53:46 10° WSW 19:55:13 26° SW 19:55:13 26° SW
Cosmos 1238 Rocket 3.0 19:52:43 10° SSW 19:56:37 61° W 19:59:57 10° N
USA 305 3.1 19:53:46 10° WNW 19:58:00 61° SSW 19:58:46 50° SSE
Terra 3.9 20:00:53 14° NE 20:00:53 14° NE 20:02:26 10° NNE
NOSS 5 (C) 4.4 19:56:43 10° SW 20:01:00 87° SE 20:01:05 84° ENE
Cosmos 1980 3.6 19:56:29 10° SSW 20:02:02 61° ESE 20:07:37 10° NE
ERS-1 Rocket 4.5 20:03:06 21° NE 20:03:06 21° NE 20:06:14 10° N
Cosmos 1733 Rocket 2.9 19:59:35 10° S 20:03:56 89° E 20:08:21 10° N
COSMOS 2428 3.2 20:03:28 10° SW 20:09:04 60° NW 20:14:45 10° NNE
Meteor 2-9 Rocket 4.2 20:10:29 52° E 20:10:29 52° E 20:15:26 10° NNE
USA 307 3.2 20:07:34 10° WNW 20:11:45 54° SSW 20:12:00 53° SSW
NOSS 3-2 (A) 3.3 20:06:52 10° SW 20:12:36 84° SE 20:19:18 10° NE
USA 306 3.3 20:08:49 10° WNW 20:12:59 51° SSW 20:13:13 50° SSW
Spot 2 Rocket 4.2 20:14:35 36° NE 20:14:35 36° NE 20:18:48 10° N
ATLAS CENTAUR R/B 3.8 20:12:49 10° WNW 20:15:19 17° NNW 20:17:48 10° NNE
Cosmos 1743 3.3 20:12:46 10° SSW 20:16:36 57° WNW 20:20:28 10° N
Cosmos 2369 Rocket 3.2 20:12:46 10° NNW 20:17:45 31° NE 20:18:00 31° NE
Cosmos 1898 Rocket 3.6 20:12:33 10° NNW 20:17:47 72° WSW 20:19:30 42° S
NOSS 0 Rocket 3.8 20:16:13 10° SSW 20:22:24 87° WNW 20:28:36 10° NNE
USA 308 3.5 20:18:25 10° WNW 20:22:24 47° SW 20:22:24 47° SW
CENTAUR R/B 2.4 20:18:03 10° SSW 20:24:02 72° SE 20:31:14 10° NE
Cosmos 1674 Rocket 4.2 20:27:23 10° NNW 20:31:35 50° W 20:32:23 44° SW
Landsat 7 3.9 20:34:35 70° NNE 20:34:35 70° NNE 20:38:53 10° NNW
OBJECT-B 3.2 20:35:13 19° WSW 20:35:45 20° W 20:38:13 10° NW
Cosmos 372 Rocket 4.0 20:30:45 10° NNW 20:35:35 68° NNE 20:35:35 68° NNE
ARIANE 5 R/B 3.8 20:39:17 36° NNE 20:39:17 36° NNE 20:42:09 10° N
Ariane Rocket 4.3 20:35:45 17° SSW 20:39:12 38° W 20:43:58 10° NNW
ATLAS 5 CENTAUR R/B 4.0 20:37:11 10° WNW 20:40:19 17° NNW 20:40:39 17° N
Okean 2 4.2 20:37:48 10° NNW 20:40:56 48° NW 20:40:56 48° NW
Cosmos 1763 Rocket 3.5 20:38:41 10° SSW 20:44:00 80° WNW 20:49:21 10° NNE
Cosmos 2297 3.6 20:38:41 10° NNW 20:44:28 88° ENE 20:44:36 86° SE
MetOp-B 4.0 20:45:40 85° SW 20:45:46 85° WSW 20:51:11 10° NNW
In-Cosmos 22 4.3 20:43:22 10° N 20:48:36 68° NE 20:48:36 68° NE
Cosmos 1975 Rocket 4.4 20:47:20 10° N 20:49:55 34° N 20:49:55 34° N
SJ 16-02 4.1 20:50:49 10° WNW 20:53:17 15° W 20:55:45 10° SW
USA 281 4.2 20:54:08 32° NE 20:54:21 32° NE 21:00:01 10° NNW
NOSS 3-2 (C) 3.3 20:48:39 10° SW 20:54:25 87° NW 20:55:56 55° NE
Cosmos 468 Rocket 4.4 20:50:37 10° SW 20:55:53 63° WNW 21:01:09 10° NNE
Cosmos 1943 Rocket 2.3 20:51:50 10° NNW 20:56:57 70° N 20:56:57 70° N
Cosmos 2278 Rocket 4.2 20:56:36 10° NW 21:00:55 23° WSW 21:04:05 14° SW
Cosmos 2237 Rocket 2.6 20:55:38 10° SW 21:01:17 60° NW 21:06:56 10° NNE
SeaSat 1 4.0 20:57:04 10° NNE 21:01:30 34° NW 21:05:54 10° WSW
SPOT 3 Rocket 4.4 21:05:03 41° WSW 21:05:43 44° W 21:10:44 10° NNW
Resurs 01 Rocket 3.1 21:09:14 34° W 21:09:14 34° W 21:12:52 10° NNW
SPOT 1/Viking Rocket 4.2 21:14:33 54° NW 21:14:33 54° NW 21:18:42 10° NNW
Cosmos 1934 Rocket 4.3 21:14:32 48° SW 21:16:00 60° WNW 21:22:07 10° N
Lacrosse 4 Rocket 4.2 21:15:54 10° WNW 21:18:54 17° NNW 21:21:56 10° NNE
USA 234 3.5 21:20:31 59° SW 21:20:31 59° SW 21:25:40 10° WSW
USA 238 DEB 4.3 21:28:26 10° WSW 21:34:56 52° NNW 21:41:49 10° NE
USA 238 4.3 21:28:32 10° WSW 21:35:02 53° NNW 21:41:55 10° NE
Terra 3.8 21:39:46 24° N 21:39:46 24° N 21:41:41 10° NNW
Cosmos 2369 Rocket 3.6 21:56:38 10° NW 21:59:48 34° NW 21:59:48 34° NW
CENTAUR R/B 3.7 22:09:08 10° W 22:15:16 44° NNW 22:22:32 10° NE
USA 281 4.3 22:40:59 40° NW 22:40:59 40° NW 22:44:59 10° NNW
